Time,TemperatureF,DewpointF,PressureIn,WindDirection,WindDirectionDegrees,WindSpeedMPH,WindSpeedGustMPH,Humidity,HourlyPrecipIn,Conditions,Clouds,dailyrainin,SoftwareType,DateUTC
2013-03-16 00:00:00,60.2,53.3,30.20,NNW,347,1.0,1.0,78,0.00,,,0.00,Wunderground v.1.15,2013-03-16 04:00:00,
2013-03-16 00:10:00,60.0,53.5,30.20,NNW,328,1.0,1.0,79,0.00,,,0.00,Wunderground v.1.15,2013-03-16 04:10:00,
2013-03-16 00:20:00,59.8,53.3,30.20,NW,326,1.0,1.0,79,0.00,,,0.00,Wunderground v.1.15,2013-03-16 04:20:00,
2013-03-16 00:30:00,59.6,53.4,30.20,NW,323,0.0,0.0,80,0.00,,,0.00,Wunderground v.1.15,2013-03-16 04:30:00,
2013-03-16 00:40:00,59.4,53.2,30.20,NW,323,0.0,0.0,80,0.00,,,0.00,Wunderground v.1.15,2013-03-16 04:40:00,
2013-03-16 00:50:00,59.3,53.1,30.20,NW,323,0.0,0.0,80,0.00,,,0.00,Wunderground v.1.15,2013-03-16 04:50:00,
2013-03-16 01:00:00,59.3,53.1,30.20,NNW,346,0.0,1.0,80,0.00,,,0.00,Wunderground v.1.15,2013-03-16 05:00:00,
2013-03-16 01:10:00,59.3,53.1,30.20,North,5,1.0,1.0,80,0.00,,,0.00,Wunderground v.1.15,2013-03-16 05:10:00,
2013-03-16 01:20:00,59.1,52.9,30.20,North,5,0.0,0.0,80,0.00,,,0.00,Wunderground v.1.15,2013-03-16 05:20:00,
2013-03-16 01:30:00,59.2,53.0,30.19,North,359,1.0,1.0,80,0.00,,,0.00,Wunderground v.1.15,2013-03-16 05:30:00,
2013-03-16 01:40:00,59.2,53.4,30.19,North,1,0.0,0.0,81,0.00,,,0.00,Wunderground v.1.15,2013-03-16 05:40:00,
2013-03-16 01:50:00,58.7,52.5,30.19,North,1,0.0,0.0,80,0.00,,,0.00,Wunderground v.1.15,2013-03-16 05:50:00,
2013-03-16 02:00:00,58.3,52.8,30.19,North,359,0.0,1.0,82,0.00,,,0.00,Wunderground v.1.15,2013-03-16 06:00:00,
2013-03-16 02:10:00,58.2,52.4,30.18,North,360,0.0,0.0,81,0.00,,,0.00,Wunderground v.1.15,2013-03-16 06:10:00,
2013-03-16 02:20:00,57.9,52.4,30.18,North,360,0.0,0.0,82,0.00,,,0.00,Wunderground v.1.15,2013-03-16 06:20:00,
2013-03-16 02:30:00,58.0,52.9,30.18,North,360,0.0,0.0,83,0.00,,,0.00,Wunderground v.1.15,2013-03-16 06:30:00,
2013-03-16 02:40:00,57.8,52.7,30.18,North,360,0.0,0.0,83,0.00,,,0.00,Wunderground v.1.15,2013-03-16 06:40:00,
2013-03-16 02:50:00,57.2,52.4,30.18,North,359,0.0,0.0,84,0.00,,,0.00,Wunderground v.1.15,2013-03-16 06:50:00,
2013-03-16 03:00:00,57.2,52.7,30.17,WNW,298,0.0,0.0,85,0.00,,,0.00,Wunderground v.1.15,2013-03-16 07:00:00,
2013-03-16 03:10:00,56.3,51.8,30.17,WNW,300,0.0,0.0,85,0.00,,,0.00,Wunderground v.1.15,2013-03-16 07:10:00,
2013-03-16 03:20:00,56.0,51.9,30.17,WNW,300,0.0,0.0,86,0.00,,,0.00,Wunderground v.1.15,2013-03-16 07:20:00,
2013-03-16 03:30:00,56.1,52.6,30.17,WNW,300,0.0,0.0,88,0.00,,,0.00,Wunderground v.1.15,2013-03-16 07:30:00,
2013-03-16 03:40:00,55.8,52.0,30.17,WNW,300,0.0,0.0,87,0.00,,,0.00,Wunderground v.1.15,2013-03-16 07:40:00,
2013-03-16 03:50:00,56.3,53.1,30.17,WNW,300,0.0,0.0,89,0.00,,,0.00,Wunderground v.1.15,2013-03-16 07:50:00,
2013-03-16 04:00:00,56.5,53.0,30.17,WNW,301,0.0,0.0,88,0.00,,,0.00,Wunderground v.1.15,2013-03-16 08:00:00,
2013-03-16 04:10:00,56.1,52.6,30.17,WNW,300,0.0,0.0,88,0.00,,,0.00,Wunderground v.1.15,2013-03-16 08:10:00,
2013-03-16 04:20:00,56.0,52.8,30.17,WNW,298,0.0,0.0,89,0.00,,,0.00,Wunderground v.1.15,2013-03-16 08:20:00,
2013-03-16 04:30:00,56.0,53.1,30.17,WNW,298,0.0,0.0,90,0.00,,,0.00,Wunderground v.1.15,2013-03-16 08:30:00,
2013-03-16 04:40:00,55.8,52.9,30.17,WNW,298,0.0,0.0,90,0.00,,,0.00,Wunderground v.1.15,2013-03-16 08:40:00,
2013-03-16 04:50:00,55.7,52.8,30.17,WNW,300,0.0,0.0,90,0.00,,,0.00,Wunderground v.1.15,2013-03-16 08:50:00,
2013-03-16 05:00:00,55.3,52.4,30.17,NW,316,0.0,0.0,90,0.00,,,0.00,Wunderground v.1.15,2013-03-16 09:00:00,
2013-03-16 05:10:00,55.1,52.5,30.17,WNW,303,0.0,0.0,91,0.00,,,0.00,Wunderground v.1.15,2013-03-16 09:10:00,
2013-03-16 05:20:00,55.0,52.4,30.17,NW,304,0.0,0.0,91,0.00,,,0.00,Wunderground v.1.15,2013-03-16 09:20:00,
2013-03-16 05:30:00,55.0,52.4,30.17,WNW,303,0.0,0.0,91,0.00,,,0.00,Wunderground v.1.15,2013-03-16 09:30:00,
2013-03-16 05:40:00,54.7,52.1,30.17,NW,304,0.0,0.0,91,0.00,,,0.00,Wunderground v.1.15,2013-03-16 09:40:00,
2013-03-16 05:50:00,54.8,52.5,30.17,NW,304,0.0,0.0,92,0.00,,,0.00,Wunderground v.1.15,2013-03-16 09:50:00,
2013-03-16 06:00:00,55.2,52.9,30.17,WNW,302,0.0,0.0,92,0.00,,,0.00,Wunderground v.1.15,2013-03-16 10:00:00,
2013-03-16 06:10:00,54.9,52.6,30.17,WNW,302,0.0,0.0,92,0.00,,,0.00,Wunderground v.1.15,2013-03-16 10:10:00,
2013-03-16 06:20:00,54.6,52.3,30.18,NW,304,0.0,0.0,92,0.00,,,0.00,Wunderground v.1.15,2013-03-16 10:20:00,
2013-03-16 06:30:00,54.5,52.2,30.18,NW,304,0.0,0.0,92,0.00,,,0.00,Wunderground v.1.15,2013-03-16 10:30:00,
2013-03-16 06:40:00,54.7,52.4,30.18,NW,304,0.0,0.0,92,0.00,,,0.00,Wunderground v.1.15,2013-03-16 10:40:00,
2013-03-16 06:50:00,54.2,51.9,30.18,NW,304,0.0,0.0,92,0.00,,,0.00,Wunderground v.1.15,2013-03-16 10:50:00,
2013-03-16 07:00:00,54.9,53.2,30.19,WNW,302,0.0,0.0,94,0.00,,,0.00,Wunderground v.1.15,2013-03-16 11:00:00,
2013-03-16 07:10:00,55.1,53.1,30.19,WNW,302,0.0,0.0,93,0.00,,,0.00,Wunderground v.1.15,2013-03-16 11:10:00,
2013-03-16 07:20:00,54.8,52.5,30.19,WNW,302,0.0,0.0,92,0.00,,,0.00,Wunderground v.1.15,2013-03-16 11:20:00,
2013-03-16 07:30:00,54.5,52.5,30.19,WNW,302,0.0,0.0,93,0.00,,,0.00,Wunderground v.1.15,2013-03-16 11:30:00,
2013-03-16 07:40:00,54.5,52.5,30.19,WNW,302,0.0,0.0,93,0.00,,,0.00,Wunderground v.1.15,2013-03-16 11:40:00,
2013-03-16 07:50:00,54.6,52.6,30.20,WNW,302,0.0,0.0,93,0.00,,,0.00,Wunderground v.1.15,2013-03-16 11:50:00,
2013-03-16 08:00:00,55.1,53.1,30.20,WNW,302,0.0,0.0,93,0.00,,,0.00,Wunderground v.1.15,2013-03-16 12:00:00,
2013-03-16 08:10:00,55.5,53.2,30.20,West,260,0.0,0.0,92,0.00,,,0.00,Wunderground v.1.15,2013-03-16 12:10:00,
2013-03-16 08:20:00,56.7,54.1,30.20,West,277,0.0,0.0,91,0.00,,,0.00,Wunderground v.1.15,2013-03-16 12:20:00,
2013-03-16 08:30:00,58.0,55.1,30.21,West,274,0.0,0.0,90,0.00,,,0.00,Wunderground v.1.15,2013-03-16 12:30:00,
2013-03-16 08:40:00,58.4,55.2,30.21,West,276,0.0,1.0,89,0.00,,,0.00,Wunderground v.1.15,2013-03-16 12:40:00,
2013-03-16 08:50:00,59.6,56.0,30.21,NNE,13,1.0,2.0,88,0.00,,,0.00,Wunderground v.1.15,2013-03-16 12:50:00,
2013-03-16 09:00:00,61.3,57.1,30.21,North,360,2.0,2.0,86,0.00,,,0.00,Wunderground v.1.15,2013-03-16 13:00:00,
2013-03-16 09:10:00,62.8,57.2,30.21,North,1,1.0,1.0,82,0.00,,,0.00,Wunderground v.1.15,2013-03-16 13:10:00,
2013-03-16 09:20:00,64.3,57.3,30.21,North,6,1.0,1.0,78,0.00,,,0.00,Wunderground v.1.15,2013-03-16 13:20:00,
2013-03-16 09:30:00,65.6,57.5,30.22,North,6,0.0,0.0,75,0.00,,,0.00,Wunderground v.1.15,2013-03-16 13:30:00,
2013-03-16 09:40:00,67.0,57.7,30.21,ENE,67,0.0,1.0,72,0.00,,,0.00,Wunderground v.1.15,2013-03-16 13:40:00,
2013-03-16 09:50:00,67.7,55.9,30.21,North,352,1.0,1.0,66,0.00,,,0.00,Wunderground v.1.15,2013-03-16 13:50:00,
2013-03-16 10:00:00,69.5,54.5,30.21,SE,127,1.0,1.0,59,0.00,,,0.00,Wunderground v.1.15,2013-03-16 14:00:00,
2013-03-16 10:10:00,70.0,53.1,30.21,East,96,1.0,3.0,55,0.00,,,0.00,Wunderground v.1.15,2013-03-16 14:10:00,
2013-03-16 10:20:00,69.4,53.5,30.21,East,91,4.0,4.0,57,0.00,,,0.00,Wunderground v.1.15,2013-03-16 14:20:00,
2013-03-16 10:30:00,69.7,52.8,30.21,East,93,3.0,4.0,55,0.00,,,0.00,Wunderground v.1.15,2013-03-16 14:30:00,
2013-03-16 10:40:00,69.9,53.5,30.21,ESE,115,3.0,3.0,56,0.00,,,0.00,Wunderground v.1.15,2013-03-16 14:40:00,
2013-03-16 10:50:00,70.6,53.1,30.21,ESE,118,3.0,3.0,54,0.00,,,0.00,Wunderground v.1.15,2013-03-16 14:50:00,
2013-03-16 11:00:00,70.1,52.7,30.21,SSW,207,4.0,4.0,54,0.00,,,0.00,Wunderground v.1.15,2013-03-16 15:00:00,
2013-03-16 11:10:00,71.0,53.0,30.20,East,82,3.0,3.0,53,0.00,,,0.00,Wunderground v.1.15,2013-03-16 15:10:00,
2013-03-16 11:20:00,71.2,52.7,30.21,SE,128,3.0,6.0,52,0.00,,,0.00,Wunderground v.1.15,2013-03-16 15:20:00,
2013-03-16 11:30:00,71.1,52.6,30.21,ESE,120,4.0,5.0,52,0.00,,,0.00,Wunderground v.1.15,2013-03-16 15:30:00,
2013-03-16 11:40:00,71.1,52.0,30.20,East,82,3.0,3.0,51,0.00,,,0.00,Wunderground v.1.15,2013-03-16 15:40:00,
2013-03-16 11:50:00,71.8,52.7,30.20,SE,136,3.0,5.0,51,0.00,,,0.00,Wunderground v.1.15,2013-03-16 15:50:00,
2013-03-16 12:00:00,72.6,52.9,30.20,SSE,155,4.0,4.0,50,0.00,,,0.00,Wunderground v.1.15,2013-03-16 16:00:00,
2013-03-16 12:10:00,73.2,53.4,30.20,ENE,70,4.0,4.0,50,0.00,,,0.00,Wunderground v.1.15,2013-03-16 16:10:00,
2013-03-16 12:20:00,72.9,53.2,30.20,SE,134,3.0,5.0,50,0.00,,,0.00,Wunderground v.1.15,2013-03-16 16:20:00,
2013-03-16 12:30:00,72.8,53.6,30.19,East,94,4.0,6.0,51,0.00,,,0.00,Wunderground v.1.15,2013-03-16 16:30:00,
2013-03-16 12:40:00,72.0,52.9,30.19,SE,124,5.0,5.0,51,0.00,,,0.00,Wunderground v.1.15,2013-03-16 16:40:00,
2013-03-16 12:50:00,72.2,53.1,30.19,East,81,5.0,5.0,51,0.00,,,0.00,Wunderground v.1.15,2013-03-16 16:50:00,
2013-03-16 13:00:00,72.3,54.2,30.18,South,186,5.0,8.0,53,0.00,,,0.00,Wunderground v.1.15,2013-03-16 17:00:00,
2013-03-16 13:10:00,72.1,54.5,30.18,SE,127,5.0,5.0,54,0.00,,,0.00,Wunderground v.1.15,2013-03-16 17:10:00,
2013-03-16 13:20:00,72.1,54.5,30.18,ESE,113,5.0,8.0,54,0.00,,,0.00,Wunderground v.1.15,2013-03-16 17:20:00,
2013-03-16 13:30:00,73.0,55.4,30.18,SE,136,5.0,5.0,54,0.00,,,0.00,Wunderground v.1.15,2013-03-16 17:30:00,
2013-03-16 13:40:00,72.3,54.7,30.18,NNW,342,6.0,6.0,54,0.00,,,0.00,Wunderground v.1.15,2013-03-16 17:40:00,
2013-03-16 13:50:00,72.4,54.8,30.17,East,81,6.0,8.0,54,0.00,,,0.00,Wunderground v.1.15,2013-03-16 17:50:00,
2013-03-16 14:00:00,72.3,55.2,30.16,ESE,104,6.0,7.0,55,0.00,,,0.00,Wunderground v.1.15,2013-03-16 18:00:00,
2013-03-16 14:10:00,72.0,54.9,30.16,SE,129,6.0,6.0,55,0.00,,,0.00,Wunderground v.1.15,2013-03-16 18:10:00,
2013-03-16 14:20:00,72.9,55.8,30.16,East,99,5.0,9.0,55,0.00,,,0.00,Wunderground v.1.15,2013-03-16 18:20:00,
2013-03-16 14:30:00,72.5,55.4,30.15,SE,130,6.0,6.0,55,0.00,,,0.00,Wunderground v.1.15,2013-03-16 18:30:00,
2013-03-16 14:40:00,72.8,55.7,30.15,SE,128,5.0,5.0,55,0.00,,,0.00,Wunderground v.1.15,2013-03-16 18:40:00,
2013-03-16 14:50:00,72.7,56.6,30.14,SSE,166,5.0,5.0,57,0.00,,,0.00,Wunderground v.1.15,2013-03-16 18:50:00,
2013-03-16 15:00:00,72.4,55.8,30.14,ESE,108,6.0,6.0,56,0.00,,,0.00,Wunderground v.1.15,2013-03-16 19:00:00,
2013-03-16 15:10:00,73.2,57.1,30.14,SSE,152,5.0,6.0,57,0.00,,,0.00,Wunderground v.1.15,2013-03-16 19:10:00,
2013-03-16 15:20:00,73.4,56.2,30.14,SSW,203,5.0,5.0,55,0.00,,,0.00,Wunderground v.1.15,2013-03-16 19:20:00,
2013-03-16 15:30:00,73.2,56.1,30.13,SE,134,6.0,6.0,55,0.00,,,0.00,Wunderground v.1.15,2013-03-16 19:30:00,
2013-03-16 15:40:00,72.6,56.0,30.13,ESE,108,5.0,5.0,56,0.00,,,0.00,Wunderground v.1.15,2013-03-16 19:40:00,
2013-03-16 15:50:00,72.4,56.3,30.13,SE,127,6.0,6.0,57,0.00,,,0.00,Wunderground v.1.15,2013-03-16 19:50:00,
2013-03-16 16:00:00,72.5,55.4,30.12,South,172,6.0,6.0,55,0.00,,,0.00,Wunderground v.1.15,2013-03-16 20:00:00,
2013-03-16 16:10:00,72.5,54.9,30.12,SSE,148,6.0,6.0,54,0.00,,,0.00,Wunderground v.1.15,2013-03-16 20:10:00,
2013-03-16 16:20:00,72.0,54.9,30.12,SE,124,7.0,7.0,55,0.00,,,0.00,Wunderground v.1.15,2013-03-16 20:20:00,
2013-03-16 16:30:00,72.6,55.0,30.12,SSE,165,5.0,5.0,54,0.00,,,0.00,Wunderground v.1.15,2013-03-16 20:30:00,
2013-03-16 16:40:00,72.4,55.3,30.12,SSE,156,6.0,7.0,55,0.00,,,0.00,Wunderground v.1.15,2013-03-16 20:40:00,
2013-03-16 16:50:00,72.5,55.4,30.11,SE,130,5.0,5.0,55,0.00,,,0.00,Wunderground v.1.15,2013-03-16 20:50:00,
2013-03-16 17:00:00,72.2,54.6,30.11,ESE,116,6.0,6.0,54,0.00,,,0.00,Wunderground v.1.15,2013-03-16 21:00:00,
2013-03-16 17:10:00,72.1,54.5,30.11,SSE,149,6.0,6.0,54,0.00,,,0.00,Wunderground v.1.15,2013-03-16 21:10:00,
2013-03-16 17:20:00,72.3,54.2,30.11,SSE,160,5.0,5.0,53,0.00,,,0.00,Wunderground v.1.15,2013-03-16 21:20:00,
2013-03-16 17:30:00,71.4,53.9,30.11,ESE,117,6.0,6.0,54,0.00,,,0.00,Wunderground v.1.15,2013-03-16 21:30:00,
2013-03-16 17:40:00,71.5,54.0,30.11,ESE,113,6.0,8.0,54,0.00,,,0.00,Wunderground v.1.15,2013-03-16 21:40:00,
2013-03-16 17:50:00,71.5,54.0,30.11,South,179,5.0,5.0,54,0.00,,,0.00,Wunderground v.1.15,2013-03-16 21:50:00,
2013-03-16 18:00:00,71.5,54.5,30.12,SE,146,6.0,9.0,55,0.00,,,0.00,Wunderground v.1.15,2013-03-16 22:00:00,
2013-03-16 18:10:00,71.2,54.7,30.11,ESE,110,7.0,7.0,56,0.00,,,0.00,Wunderground v.1.15,2013-03-16 22:10:00,
2013-03-16 18:20:00,71.3,54.8,30.11,ESE,120,6.0,6.0,56,0.00,,,0.00,Wunderground v.1.15,2013-03-16 22:20:00,
2013-03-16 18:30:00,71.0,54.5,30.11,South,187,6.0,6.0,56,0.00,,,0.00,Wunderground v.1.15,2013-03-16 22:30:00,
2013-03-16 18:40:00,70.7,54.7,30.12,South,179,5.0,5.0,57,0.00,,,0.00,Wunderground v.1.15,2013-03-16 22:40:00,
2013-03-16 18:50:00,70.8,54.8,30.12,East,83,5.0,5.0,57,0.00,,,0.00,Wunderground v.1.15,2013-03-16 22:50:00,
2013-03-16 19:00:00,70.4,54.9,30.12,SE,127,5.0,5.0,58,0.00,,,0.00,Wunderground v.1.15,2013-03-16 23:00:00,
2013-03-16 19:10:00,69.9,55.4,30.12,SSE,152,5.0,5.0,60,0.00,,,0.00,Wunderground v.1.15,2013-03-16 23:10:00,
2013-03-16 19:20:00,69.5,55.5,30.12,SE,135,5.0,5.0,61,0.00,,,0.00,Wunderground v.1.15,2013-03-16 23:20:00,
2013-03-16 19:30:00,68.9,54.9,30.12,SSW,212,5.0,10.0,61,0.00,,,0.00,Wunderground v.1.15,2013-03-16 23:30:00,
2013-03-16 19:40:00,68.6,55.1,30.12,South,186,5.0,5.0,62,0.00,,,0.00,Wunderground v.1.15,2013-03-16 23:40:00,
2013-03-16 19:50:00,68.4,54.9,30.12,SE,146,4.0,4.0,62,0.00,,,0.00,Wunderground v.1.15,2013-03-16 23:50:00,
2013-03-16 20:00:00,68.2,55.1,30.12,ESE,108,3.0,3.0,63,0.00,,,0.00,Wunderground v.1.15,2013-03-17 00:00:00,
2013-03-16 20:10:00,68.2,54.7,30.12,South,174,4.0,4.0,62,0.00,,,0.00,Wunderground v.1.15,2013-03-17 00:10:00,
2013-03-16 20:20:00,68.2,55.1,30.12,SE,144,4.0,4.0,63,0.00,,,0.00,Wunderground v.1.15,2013-03-17 00:20:00,
2013-03-16 20:30:00,68.0,55.4,30.12,SSE,162,4.0,4.0,64,0.00,,,0.00,Wunderground v.1.15,2013-03-17 00:30:00,
2013-03-16 20:40:00,67.9,55.3,30.13,SSE,149,4.0,6.0,64,0.00,,,0.00,Wunderground v.1.15,2013-03-17 00:40:00,
2013-03-16 20:50:00,67.9,55.3,30.13,South,169,4.0,4.0,64,0.00,,,0.00,Wunderground v.1.15,2013-03-17 00:50:00,
2013-03-16 21:00:00,67.7,55.1,30.13,SSW,211,4.0,4.0,64,0.00,,,0.00,Wunderground v.1.15,2013-03-17 01:00:00,
2013-03-16 21:10:00,67.9,55.3,30.13,SSW,198,5.0,5.0,64,0.00,,,0.00,Wunderground v.1.15,2013-03-17 01:10:00,
2013-03-16 21:20:00,67.8,55.2,30.14,SE,143,4.0,5.0,64,0.00,,,0.00,Wunderground v.1.15,2013-03-17 01:20:00,
2013-03-16 21:30:00,67.7,55.1,30.14,SE,144,4.0,4.0,64,0.00,,,0.00,Wunderground v.1.15,2013-03-17 01:30:00,
2013-03-16 21:40:00,67.6,55.0,30.14,SE,127,3.0,3.0,64,0.00,,,0.00,Wunderground v.1.15,2013-03-17 01:40:00,
2013-03-16 21:50:00,67.6,55.0,30.14,South,174,5.0,5.0,64,0.00,,,0.00,Wunderground v.1.15,2013-03-17 01:50:00,
2013-03-16 22:00:00,67.7,55.1,30.15,SE,127,5.0,5.0,64,0.00,,,0.00,Wunderground v.1.15,2013-03-17 02:00:00,
2013-03-16 22:10:00,67.7,55.9,30.15,South,176,4.0,6.0,66,0.00,,,0.00,Wunderground v.1.15,2013-03-17 02:10:00,
2013-03-16 22:20:00,67.4,55.6,30.15,South,179,3.0,7.0,66,0.00,,,0.00,Wunderground v.1.15,2013-03-17 02:20:00,
2013-03-16 22:30:00,67.3,55.5,30.15,SSW,197,3.0,3.0,66,0.00,,,0.00,Wunderground v.1.15,2013-03-17 02:30:00,
2013-03-16 22:40:00,67.2,55.5,30.16,SE,141,4.0,4.0,66,0.00,,,0.00,Wunderground v.1.15,2013-03-17 02:40:00,
2013-03-16 22:50:00,67.2,55.5,30.16,SSE,150,3.0,3.0,66,0.00,,,0.00,Wunderground v.1.15,2013-03-17 02:50:00,
2013-03-16 23:00:00,67.1,55.8,30.15,SSW,212,3.0,4.0,67,0.00,,,0.00,Wunderground v.1.15,2013-03-17 03:00:00,
2013-03-16 23:10:00,67.1,55.8,30.15,SSW,203,3.0,3.0,67,0.00,,,0.00,Wunderground v.1.15,2013-03-17 03:10:00,
2013-03-16 23:20:00,66.9,55.6,30.15,South,174,3.0,4.0,67,0.00,,,0.00,Wunderground v.1.15,2013-03-17 03:20:00,
2013-03-16 23:30:00,66.6,55.7,30.16,SSW,202,2.0,2.0,68,0.00,,,0.00,Wunderground v.1.15,2013-03-17 03:30:00,
2013-03-16 23:40:00,66.2,55.3,30.15,SSW,211,2.0,2.0,68,0.00,,,0.00,Wunderground v.1.15,2013-03-17 03:40:00,
2013-03-16 23:50:00,65.9,55.4,30.15,South,187,1.0,1.0,69,0.00,,,0.00,Wunderground v.1.15,2013-03-17 03:50:00,